EST,Max TemperatureF,Mean TemperatureF,Min TemperatureF,Max Dew PointF,MeanDew PointF,Min DewpointF,Max Humidity, Mean Humidity, Min Humidity, Max Sea Level PressureIn, Mean Sea Level PressureIn, Min Sea Level PressureIn, Max VisibilityMiles, Mean VisibilityMiles, Min VisibilityMiles, Max Wind SpeedMPH, Mean Wind SpeedMPH, Max Gust SpeedMPH,PrecipitationIn, CloudCover, Events, WindDirDegrees
2012-12-1,28,27,26,24,19,5,85,73,36,30.67,30.61,30.53,10,7,2,10,6,,0.00,8,Snow,19
2012-12-2,51,40,28,44,35,25,93,86,71,30.52,30.28,30.04,10,5,0,12,2,20,0.01,7,Fog-Rain,229
2012-12-3,57,46,34,45,40,32,96,76,55,30.32,30.15,30.02,10,9,5,16,8,23,0.00,1,Rain,263
2012-12-4,59,46,33,54,41,30,92,85,80,30.34,30.23,29.97,10,8,2,10,2,18,0.00,7,,204
2012-12-5,59,46,32,54,37,14,84,62,43,30.15,29.95,29.84,10,10,6,20,10,33,0.02,5,Rain,275
2012-12-6,39,32,24,17,16,15,75,53,38,30.34,30.29,30.16,10,10,10,12,6,31,0.00,0,,307
2012-12-7,44,34,24,39,29,17,89,74,60,30.31,30.17,30.05,10,10,8,8,1,,0.01,6,Rain,198
2012-12-8,43,41,39,41,39,37,93,89,87,30.05,29.97,29.88,8,3,1,9,3,,0.18,8,Rain,30
2012-12-9,45,42,39,40,33,28,93,73,53,30.32,30.21,29.99,10,9,4,8,4,,0.07,2,Rain,314
2012-12-10,50,46,41,48,43,37,100,91,85,30.17,29.80,29.49,10,3,0,7,3,,0.36,8,Fog-Rain,63
2012-12-11,48,40,32,44,33,22,93,71,53,30.16,29.85,29.56,10,10,2,13,6,20,0.01,6,Rain,299
2012-12-12,37,32,28,22,21,20,78,66,52,30.44,30.35,30.18,10,10,10,7,3,,0.00,0,,258
2012-12-13,43,34,24,26,22,21,88,71,42,30.49,30.41,30.30,10,10,8,5,1,,0.00,0,,218
2012-12-14,48,37,26,26,22,19,81,61,32,30.29,30.17,30.06,10,10,10,15,5,20,0.00,0,,237
2012-12-15,39,32,26,24,21,16,79,63,40,30.36,30.30,30.19,10,10,10,9,3,,0.00,1,,5
2012-12-16,28,26,24,25,20,14,93,78,60,30.37,30.23,30.13,10,5,1,12,8,,0.00,8,Rain-Snow,26
2012-12-17,34,30,26,32,27,21,93,89,80,30.12,30.02,29.85,8,3,2,14,10,18,0.14,8,Rain-Snow,20
2012-12-18,51,43,35,49,42,33,100,91,87,29.81,29.52,29.41,10,3,0,14,8,22,0.78,8,Fog-Rain,340
2012-12-19,45,41,37,39,33,28,93,74,56,30.05,29.65,29.46,10,9,3,16,9,28,0.00,8,,308
2012-12-20,39,34,30,33,28,26,86,72,58,30.24,30.15,30.06,10,10,10,10,3,,0.00,7,,39
2012-12-21,54,46,37,50,41,32,93,83,67,30.02,29.44,29.09,10,7,1,22,10,48,0.73,8,Rain,123
2012-12-22,39,34,28,32,22,12,76,61,46,29.63,29.38,29.23,10,10,9,21,12,32,0.00,6,Rain,253
2012-12-23,37,32,26,22,17,11,67,54,41,29.87,29.80,29.66,10,10,10,18,9,25,0.00,1,,241
2012-12-24,39,33,27,21,17,13,75,56,36,30.08,30.02,29.87,10,10,10,15,5,23,0.00,0,,254
2012-12-25,34,30,27,25,21,14,86,70,58,30.24,30.09,30.02,10,8,2,7,3,,0.01,6,Snow,331
2012-12-26,37,28,19,32,21,10,89,69,46,30.34,30.22,29.97,10,8,2,15,4,24,0.10,4,Rain-Snow,48
2012-12-27,44,37,30,41,34,27,93,86,78,29.96,29.53,29.29,10,4,2,31,18,40,1.99,8,Rain-Snow,28
2012-12-28,36,32,28,27,21,17,80,65,55,30.02,29.87,29.62,10,10,10,17,11,31,0.00,2,,291
2012-12-29,30,28,26,29,25,21,93,83,67,30.01,29.68,29.44,10,5,0,16,6,23,0.00,6,Fog-Snow,6
2012-12-30,28,24,21,25,15,5,86,64,46,29.96,29.67,29.45,10,8,2,22,12,33,0.00,4,Snow,307
2012-12-31,34,26,17,22,16,6,68,62,53,30.02,29.93,29.77,10,10,10,16,7,22,0.02,3,,235